Flag for Iran Weather past 2 weeks in Mashhad, Iran

Now
59 °F

Clear.


Feels Like: 59 °F
Forecast: 49 / 84 °F
Wind: 5 mph from South

Location: Mashhad Airport

Current Time: Sep 20, 2014 at 3:16:44 AM

Latest Report: Sep 20, 2014 at 2:30 AM


Visibility: 10 mi

Pressure: 30.15 "Hg

Humidity: 31%

Dew point: 28 °F

Location of MashhadLocation

Historic Weather in Mashhad — Graph

°F

Mashhad temperature yesterday

Maximum temperature yesterday: 79 °F (at 1:30 PM)
Minimum temperature yesterday: 59 °F (at 4:00 AM)
Average temperature yesterday: 68 °F

Past Weeks' High & Low Weather Summary

 TemperatureHumidityPressure
High95 °F (Sep 17, 2:00 PM)52% (Sep 18, 5:30 AM)30.27 "Hg (Sep 18, 5:30 AM)
Low55 °F (Sep 12, 5:30 AM)4% (Sep 5, 3:30 PM)29.77 "Hg (Sep 5, 4:00 PM)
Average75 °F17%30.00 "Hg
* Reported Sep 5 1:30 AM — Sep 20 2:00 AM, Mashhad, Weather by CustomWeather, © 2014

Note: Actual official high and low records may vary slightly from our data, if they occured in-between our weather recording intervals... More about our weather records

Advertising

Mashhad weather history for previous 24 hours

 ConditionsComfort  
Time TempWeatherWind HumidityBarometerVisibility
2:00 AM
Sep 20
61 °FClear.7 mph29%30.15 "Hg10 mi
1:00 AM61 °FClear.7 mph29%30.18 "Hg10 mi
12:30 AM61 °FClear.7 mph29%30.21 "Hg10 mi
12:00 AM63 °FClear.7 mph30%30.21 "Hg10 mi
11:30 PM
Sep 19
63 °FClear.12 mph27%30.21 "Hg10 mi
11:00 PM63 °FClear.9 mph30%30.24 "Hg10 mi
10:30 PM63 °FClear.9 mph30%30.24 "Hg10 mi
10:00 PM63 °FClear.7 mph30%30.24 "Hg10 mi
9:30 PM64 °FClear.9 mph28%30.24 "Hg10 mi
9:00 PM64 °FClear.9 mph28%30.24 "Hg10 mi
8:30 PM66 °FClear.7 mph28%30.24 "Hg10 mi
8:00 PM68 °FSunny.7 mph26%30.21 "Hg10 mi
7:30 PM70 °FSunny.14 mph27%30.21 "Hg10 mi
7:00 PM72 °FSunny.12 mph25%30.21 "Hg10 mi
6:30 PM73 °FSunny.9 mph23%30.21 "Hg10 mi
6:00 PM73 °FSunny.12 mph23%30.21 "Hg10 mi
5:30 PM75 °FSunny.21 mph22%30.18 "Hg10 mi
5:00 PM77 °FSunny.14 mph21%30.18 "Hg10 mi
4:30 PM77 °FSunny.18 mph21%30.18 "Hg10 mi
4:00 PM79 °FSunny.12 mph20%30.18 "Hg10 mi
3:30 PM79 °FSunny.12 mph20%30.18 "Hg10 mi
3:00 PM79 °FSunny.16 mph21%30.18 "Hg10 mi
2:30 PM79 °FSunny.12 mph23%30.21 "Hg10 mi
2:00 PM77 °FSunny.9 mph24%30.21 "Hg10 mi
1:30 PM79 °FSunny.16 mph21%30.21 "Hg10 mi
1:00 PM75 °FSunny.18 mph24%30.21 "Hg10 mi
12:30 PM75 °FSunny.9 mph22%30.24 "Hg10 mi
12:00 PM75 °FSunny.9 mph22%30.27 "Hg10 mi
11:30 AM73 °FSunny.5 mph23%30.27 "Hg10 mi
10:55 AM73 °FSunny.12 mph23%30.27 "Hg10 mi
10:30 AM72 °FSunny.7 mph25%30.27 "Hg10 mi
9:30 AM70 °FSunny.7 mph27%30.27 "Hg10 mi
9:00 AM66 °FSunny.7 mph30%30.27 "Hg10 mi
8:30 AM66 °FSunny.7 mph30%30.27 "Hg10 mi
8:00 AM66 °FSunny.7 mph32%30.24 "Hg10 mi
7:30 AM63 °FClear.5 mph42%30.24 "Hg10 mi
7:00 AM61 °FClear.5 mph45%30.24 "Hg5 mi
6:30 AM59 °FClear.5 mph48%30.21 "Hg4 mi
6:00 AM59 °FClear.No wind48%30.21 "Hg10 mi
5:30 AM59 °FClear.5 mph48%30.21 "Hg10 mi
5:00 AM59 °FClear.No wind48%30.21 "Hg10 mi
4:30 AM59 °FClear.5 mph48%30.21 "Hg10 mi
4:00 AM59 °FClear.5 mph48%30.21 "Hg10 mi
3:30 AM63 °FClear.5 mph42%30.21 "Hg10 mi
3:00 AM63 °FClear.5 mph42%30.21 "Hg10 mi
Weather by CustomWeather, © 2014

See weather overviewHow to use our weather pages